SCP
0 0 0 0 0 0 0 0 0 0 0 0 0 0 0 0 0 0 0 0 0 0 0 0 0 0 0 0 0 0 0 0 0 0 0 0 0 0 0 0 0 0 0
-0 0 0 0 0 0 0 0 0 0 0 0 0 0 0 0 0 0 0 0 0 0 0 0 0 0 0 0 0 0 0 0 0 0 0 0 0 0 0 0 0 0 0
0 0 0 0 0 0 0 0 0 0 0 0 0 0 0 0 0 0 0 0 0 0 0 0 0 0 0 0 0 0 0 0 0 0 0 0 0 0 0 0 0 0 0
0 0 0 0 0 0 0 0 0 0 0 0 0 0 0 0 0 0 0 0 0 0 0 0 0 0 0 0 0 0 0 0 0 0 0 0 0 0 0 0 0 0 0
0 0 0 0 0 0 0 0 0 0 0 0 0 0 0 0 0 0 0 0 0 0 0 0 0 0 0 0 0 0 0 0 0 0 0 0 0 0 0 0 0 0 0
0 0 0 0 0 0 0 0 0 0 0 0 0 0 0 0 0 0 0 0 0 0 0 0 0 0 0 0 0 0 0 0 0 0 0 0 0 0 0 0 0 0 0
0 0 0 0 0 0 0 0 0 0 0 0 0 0 0 0 0 0 0 0 0 0 0 0 0 0 0 0 0 0 0 0 0 0 0 0 0 0 0 0 0 0 0
0 0 0 0 0 0 0 0 0 0 0 0 0 0 0 0 0 0 0 0 0 0 0 0 0 0 0 0 0 0 0 0 0 0 0 0 0 0 0 0 0 0 0
0 0 0 0 0 0 0 0 0 0 0 0 0 0 0 0 0 0 0 0 0 0 0 0 0 0 0 0 0 0 0 0 0 0 0 0 0 0 0 0 0 0 0
0 0 0 0 0 0 0 0 0 0 0 0 0 0 0 0 0 0 0 0 0 0 0 0 0 0 0 0 0 0 0 0 0 0 0 0 0 0 0 0 0 0 0
0 0 0 0 0 0 0 0 0 0 0 0 0 0 0 0 0 0 0 0 0 0 0 0 0 0 0 0 0 0 0 0 0 0 0 0 0 0 0 0 0 0 0
0 0 0 0 0 0 0 0 0 0 0 0 0 0 0 0 0 0 0 0 0 0 0 0 0 0 0 0 0 0 0 0 0 0 0 0 0 0 0 0 0 0 0
0 0 0 0 0 0 0 0 0 0 0 0 0 0 0 0 0 0 0 0 0 0 0 0 0 0 0 0 0 0 0 0 0 0 0 0 0 0 0 0 0 0 0
0 0 0 0 0 0 0 0 0 0 0 0 0 0 0 0 0 0 0 0 0 0 0 0 0 0 0 0 0 0 0 0 0 0 0 0 0 0 0 0 0 0 0
0 0 0 0 0 0 0 0 0 0 0 0 0 0 0 0 0 0 0 0 0 0 0 0 0 0 0 0 0 0 0 0 0 0 0 0 0 0 0 0 0 0 0
0 0 0 0 0 0 0 0 0 0 0 0 0 0 0 0 0 0 0 0 0 0 0 0 0 0 0 0 0 0 0 0 0 0 0 0 0 0 0 0 0 0 0
0 0 0 0 0 0 0 0 0 0 0 0 0 0 0 0 0 0 0 0 0 0 0 0 0 0 0 0 0 0 0 0 0 0 0 0 0 0 0 0 0 0 0
0 0 0 0 0 0 0 0 0 0 0 0 0 0 0 0 0 0 0 0 0 0 0 0 0 0 0 0 0 0 0 0 0 0 0 0 0 0 0 0 0 0 0
0 0 0 0 0 0 0 0 0 0 0 0 0 0 0 0 0 0 0 0 0 0 0 0 0 0 0 0 0 0 0 0 0 0 0 0 0 0 0 0 0 0 0
0 0 0 0 0 0 0 0 0 0 0 0 0 0 0 0 0 0 0 0 0 0 0 0 0 0 0 0 0 0 0 0 0 0 0 0 0 0 0 0 0 0 0
0 0 0 0 0 0 0 0 0 0 0 0 0 0 0 0 0 0 0 0 0 0 0 0 0 0 0 0 0 0 0 0 0 0 0 0 0 0 0 0 0 0 0
0 0 0 0 0 0 0 0 0 0 0 0 0 0 0 0 0 0 0 0 0 0 0 0 0 0 0 0 0 0 0 0 0 0 0 0 0 0 0 0 0 0 0
0 0 0 0 0 0 0 0 0 0 0 0 0 0 0 0 0 0 0 0 0 0 0 0 0 0 0 0 0 0 0 0 0 0 0 0 0 0 0 0 0 0 0
0 0 0 0 0 0 0 0 0 0 0 0 0 0 0 0 0 0 0 0 0 0 0 0 0 0 0 0 0 0 0 0 0 0 0 0 0 0 0 0 0 0 0
0 0 0 0 0 0 0 0 0 0 0 0 0 0 0 0 0 0 0 0 0 0 0 0 0 0 0 0 0 0 0 0 0 0 0 0 0 0 0 0 0 0 0
0 0 0 0 0 0 0 0 0 0 0 0 0 0 0 0 0 0 0 0 0 0 0 0 0 0 0 0 0 0 0 0 0 0 0 0 0 0 0 0 0 0 0
Wind_Speed
6 6 15 16 15 13 13 13 12 12 11 11 11 11 12 11 12 12 12 13 13 13 14 14 14 14 14 15 15 16 16 16 17 18 18 17 17 17 16 16 15 10 17
9 9 17 17 15 14 13 13 13 12 11 11 11 11 11 11 11 12 12 12 12 13 13 13 13 13 13 14 14 15 15 15 16 16 17 15 15 16 16 16 15 10 16
10 11 14 18 16 15 14 13 13 12 11 11 11 11 11 11 11 11 11 11 11 12 12 12 12 12 13 13 13 14 14 14 14 15 15 9 9 14 15 15 14 15 14
12 10 10 18 17 16 15 14 13 13 12 11 11 10 10 10 10 10 10 10 11 11 11 11 11 11 12 12 12 13 13 13 14 14 8 7 7 12 13 14 14 13 13
11 9 11 19 18 17 16 15 14 13 12 11 11 10 10 10 10 9 9 10 10 10 10 10 10 10 11 11 11 12 12 12 13 11 7 7 7 10 12 12 12 12 12
10 8 11 19 18 17 16 15 14 13 12 12 11 10 10 9 9 9 9 9 9 9 9 9 9 10 10 10 10 10 11 11 10 6 6 7 6 9 11 11 11 11 11
10 7 9 18 18 17 16 15 14 13 12 12 11 10 10 9 9 8 8 8 8 8 8 8 9 9 9 9 9 9 9 9 6 5 5 6 6 9 10 10 9 9 9
10 8 8 18 17 17 16 15 14 13 12 11 11 10 10 9 8 8 7 6 6 6 7 7 7 8 8 8 8 8 8 7 5 4 4 5 8 8 8 8 8 8 8
8 7 7 9 12 16 16 15 14 13 13 11 11 10 10 9 8 7 6 6 5 5 5 5 6 6 6 6 6 7 7 7 4 2 3 4 7 8 8 7 7 7 7
7 7 6 7 8 8 9 13 14 13 12 12 11 10 9 8 7 7 5 4 4 3 3 3 4 4 5 5 5 5 6 5 2 2 2 4 8 9 8 8 7 7 7
9 7 6 7 7 7 7 9 11 11 11 10 9 10 8 4 4 4 5 4 3 2 1 1 2 3 4 5 6 6 5 1 2 2 2 7 10 10 10 10 9 9 9
13 10 7 7 7 7 6 6 5 5 5 5 4 5 4 4 3 4 4 4 3 2 1 2 3 4 4 2 4 5 2 2 2 3 4 10 11 12 12 12 12 11 11
12 12 9 8 8 7 5 4 3 3 3 4 5 5 5 4 3 2 1 1 1 1 1 2 3 1 1 1 2 2 2 2 2 3 5 12 13 13 14 14 14 14 13
10 12 10 9 8 7 6 5 4 4 3 3 4 6 4 3 3 3 2 2 1 1 1 1 1 2 2 2 3 3 4 3 3 3 5 12 13 14 15 16 16 16 15
10 12 11 10 9 8 7 5 5 4 5 5 4 5 6 4 4 3 2 2 3 2 2 2 2 2 3 3 3 4 5 5 5 4 4 12 14 15 16 17 17 17 17
11 12 11 12 10 9 7 6 5 5 4 5 4 6 6 4 4 4 3 3 3 3 3 3 3 3 3 3 4 4 5 5 5 5 5 7 13 15 16 18 18 18 18
9 10 12 12 11 10 9 7 5 5 5 4 4 5 6 5 5 4 3 3 3 3 3 2 2 2 3 3 4 5 4 4 5 6 5 4 5 11 15 16 17 17 17
7 9 11 10 11 10 8 7 5 5 5 4 4 4 5 5 5 4 3 3 2 2 2 2 2 2 3 3 3 4 4 4 6 6 5 4 4 4 8 13 14 15 15
8 9 11 10 11 10 8 6 5 4 4 3 3 3 4 4 4 3 3 2 2 2 2 2 2 2 2 3 3 4 4 4 5 5 5 5 4 4 3 8 11 12 13
6 8 9 9 9 9 6 5 4 4 3 3 3 3 3 3 3 3 2 2 2 2 1 1 2 1 2 2 3 4 4 5 4 4 4 4 3 4 3 3 4 6 11
5 7 8 9 9 8 6 5 5 3 2 2 2 2 3 3 3 3 2 1 2 1 1 1 1 1 1 1 2 4 4 4 3 3 3 3 3 3 3 3 3 3 4
5 6 7 8 9 8 6 4 3 4 3 2 2 3 3 3 2 2 2 1 1 1 1 1 1 0 1 0 0 2 4 5 4 3 2 3 3 3 3 4 4 5 4
5 6 7 8 8 8 7 6 5 4 3 2 2 2 2 2 3 3 2 2 2 1 1 1 1 2 1 1 1 1 1 3 4 4 3 3 3 3 4 4 6 6 6
5 5 6 7 8 8 8 8 7 5 4 3 2 2 2 3 3 3 3 3 2 2 1 1 1 1 2 1 1 2 3 2 3 5 4 3 4 4 5 6 6 7 7
5 5 6 7 7 7 7 8 7 5 4 3 3 3 3 2 3 3 3 2 2 1 1 1 0 1 2 2 2 2 2 2 4 5 6 4 4 4 5 6 7 7 7
5 5 6 8 6 6 7 7 8 8 7 6 4 3 2 1 1 2 2 2 1 1 1 1 1 2 2 3 2 3 3 3 3 4 6 6 6 4 5 6 6 6 6
Wind_Direction
202 195 178 162 159 156 150 144 134 126 120 115 112 107 100 93 88 84 79 75 72 69 67 66 64 65 65 64 63 62 59 57 54 51 48 52 57 57 55 54 50 39 47
161 175 176 163 162 158 151 143 137 131 125 118 114 110 104 98 89 83 79 75 72 69 67 66 65 64 65 64 62 62 61 61 58 53 46 37 48 56 54 52 52 50 49
149 166 173 164 163 160 152 144 140 136 129 123 116 112 107 101 92 85 80 77 73 70 68 66 65 64 63 63 62 62 62 62 59 51 40 21 25 54 54 52 51 50 49
153 163 168 165 164 161 155 148 145 141 136 129 122 117 111 103 96 90 84 80 77 73 71 69 67 66 63 63 63 62 62 61 57 47 30 16 10 49 51 49 49 49 48
154 161 170 165 165 163 158 153 149 145 141 135 129 124 115 107 101 94 88 83 79 76 73 70 68 67 64 62 61 62 62 59 50 38 21 12 2 43 49 46 44 44 43
155 160 172 167 167 165 161 158 155 151 148 143 139 132 123 114 106 99 94 88 84 80 76 73 69 66 64 62 61 61 61 58 45 29 18 6 352 33 44 41 38 38 38
156 160 173 169 170 167 164 162 160 158 155 149 145 140 131 120 113 106 100 95 88 82 77 72 68 65 61 58 57 58 58 57 52 31 14 360 347 22 32 32 29 28 29
153 157 171 174 172 171 169 167 164 164 161 156 152 147 138 129 123 118 110 102 92 82 75 70 64 60 57 54 52 52 53 56 45 24 2 349 347 6 16 17 13 12 14
149 156 174 174 174 174 173 171 169 169 165 161 158 154 146 138 136 130 121 113 102 88 74 64 58 52 47 45 44 44 45 52 56 8 346 334 334 346 353 356 354 352 352
155 164 176 172 170 170 172 175 173 173 172 167 163 157 151 147 142 139 134 133 125 110 86 64 50 40 33 27 24 23 35 48 29 348 327 310 322 327 332 333 333 330 327
174 178 179 174 170 165 167 176 173 176 177 171 166 161 150 127 120 131 152 165 164 155 137 53 21 15 23 13 3 5 27 27 335 311 301 303 316 320 321 322 320 316 313
186 187 184 178 172 166 171 170 167 168 167 160 150 146 134 135 145 147 178 197 210 216 248 314 348 19 38 13 345 353 356 322 310 293 291 305 312 315 316 316 315 312 309
187 188 187 182 174 169 166 162 160 155 151 150 149 145 142 140 145 143 159 230 282 314 20 359 11 17 4 321 313 311 301 299 283 280 287 300 305 309 312 313 312 309 306
184 192 188 183 176 173 167 166 162 158 157 160 161 154 149 152 165 175 187 198 197 187 206 233 259 280 287 284 281 285 285 274 268 267 277 292 299 304 308 308 307 306 304
191 193 190 184 180 174 169 168 167 168 169 169 166 168 167 171 184 189 196 203 208 201 208 221 236 258 268 270 264 262 269 270 269 265 273 288 295 299 303 306 307 306 304
196 195 190 188 184 174 174 172 171 171 171 169 172 178 179 179 184 186 197 207 214 209 213 217 228 243 255 260 269 266 266 271 271 271 266 282 290 296 301 306 307 306 305
196 192 191 189 182 178 177 174 170 172 170 174 179 181 181 181 186 187 195 209 215 206 206 219 236 241 259 260 268 273 271 269 269 268 268 264 278 292 300 307 310 310 309
190 186 189 186 181 181 177 171 166 167 169 175 172 174 182 186 183 180 188 210 201 184 192 214 227 242 257 264 274 278 273 271 270 269 268 270 272 279 297 308 315 318 319
187 180 180 179 178 178 172 164 157 155 163 166 162 165 176 177 173 174 190 202 183 184 200 221 219 219 261 276 277 276 273 269 271 279 282 284 283 284 284 306 319 326 329
170 168 169 168 168 163 154 140 130 129 142 143 155 164 165 166 168 170 183 190 167 171 202 212 236 232 250 274 288 286 276 273 278 281 286 294 295 294 295 297 311 319 329
141 152 160 160 160 157 155 152 148 149 142 135 140 137 141 143 149 157 163 155 152 176 205 203 212 255 272 301 321 311 301 298 304 285 280 290 301 309 315 310 306 299 309
147 150 153 158 159 162 159 148 137 131 126 121 114 102 100 116 128 138 144 143 144 148 142 153 159 183 283 35 30 332 329 333 333 312 308 298 302 317 313 311 308 300 296
148 155 155 155 155 151 141 125 108 93 86 94 99 93 77 101 110 114 122 125 122 137 159 175 168 176 231 280 200 200 278 289 304 303 301 296 298 299 299 302 295 290 289
157 147 141 142 145 145 145 148 147 146 149 157 143 124 92 79 92 101 109 113 118 126 140 170 158 171 175 239 271 237 227 228 276 302 301 293 292 287 289 292 290 287 282
148 142 137 133 135 141 146 149 143 133 129 123 115 113 96 71 78 94 106 110 114 122 137 154 166 189 189 205 217 230 247 246 232 253 283 292 294 267 268 273 278 279 280
140 138 138 135 133 140 141 143 144 142 139 136 135 134 119 94 74 78 100 106 117 131 165 198 207 215 216 221 223 213 213 226 229 235 264 280 283 272 268 265 267 270 274